Powrót do katalogu

STARLINK-36739

AktywnyŁącznośćSSO
NORAD 67802·PAYLOAD·🇺🇸 United States

Wystrzelony Feb 15, 2026 z Vandenberg Space Force Base

Loading…

Następne Przeloty (najbliższe 24 godziny)

TLE

ŚwieżeSource: CelesTrak SupGP

Epoka: Sep 14, 2026, 22:49 UTC

1 67802C 26032F   26257.95118056  .00070452  00000+0  21869-2 0  2575
2 67802  97.2856  84.4254 0001604  96.4586 282.7657 15.33405470    18

Śledź STARLINK-36739 w czasie rzeczywistym z AllMySat

Download on the App Store